Kilmarnock, Virginia, United States (22482)
Lat: 37.71N, Lon: 76.38W
Wx Zone: VAZ078
Local Info
Past Weather Observations for Yesterday

NOTE: This archive is for the closest National Weather Service station to Kilmarnock. Information may differ from the station used for current weather conditions.

Time Weather Temperature Dewpoint Humidity Pressure Winds Precip Visibility
23:55
Clear
54°F / 12°C 30°F / -1°C 41% 30.04 in
(1017 mb)
N 5.8 mph
(N 9 kph)
- 10SM
23:35
Clear
54°F / 12°C 32°F / 0°C 44% 30.04 in
(1017 mb)
N 3.5 mph
(N 6 kph)
- 10SM
23:15
Clear
54°F / 12°C 30°F / -1°C 41% 30.01 in
(1016 mb)
NW 3.5 mph
(NW 6 kph)
- 10SM
22:55
Clear
54°F / 12°C 32°F / 0°C 44% 30.01 in
(1016 mb)
NW 8.1 mph
(NW 13 kph)
- 10SM
22:35
Clear
55°F / 13°C 32°F / 0°C 41% 30.01 in
(1016 mb)
NW 8.1 mph
(NW 13 kph)
- 10SM
22:15
Clear
55°F / 13°C 32°F / 0°C 41% 29.98 in
(1015 mb)
NW 6.9 mph
(NW 11 kph)
- 10SM
21:55
Clear
55°F / 13°C 32°F / 0°C 41% 29.98 in
(1015 mb)
N 5.8 mph
(N 9 kph)
- 10SM
21:35
Clear
55°F / 13°C 32°F / 0°C 41% 29.98 in
(1015 mb)
NW 8.1 mph
(NW 13 kph)
- 10SM
21:15
Clear
55°F / 13°C 32°F / 0°C 41% 29.98 in
(1015 mb)
Calm - 10SM
20:55
Clear
57°F / 14°C 32°F / 0°C 39% 29.98 in
(1015 mb)
NW 4.6 mph
(NW 7 kph)
- 10SM
20:35
Clear
57°F / 14°C 30°F / -1°C 36% 29.95 in
(1014 mb)
NNW 4.6 mph
(NNW 7 kph)
- 10SM
20:15
Clear
59°F / 15°C 30°F / -1°C 34% 29.95 in
(1014 mb)
NNW 5.8 mph
(NNW 9 kph)
- 10SM
19:55
Clear
59°F / 15°C 30°F / -1°C 34% 29.95 in
(1014 mb)
NNW 5.8 mph
(NNW 9 kph)
- 10SM
19:35
Clear
61°F / 16°C 28°F / -2°C 29% 29.92 in
(1013 mb)
N 6.9 mph
(N 11 kph)
- 10SM
19:15
Clear
61°F / 16°C 32°F / 0°C 34% 29.92 in
(1013 mb)
NNW 5.8 mph
(NNW 9 kph)
- 10SM
18:55
Clear
61°F / 16°C 32°F / 0°C 34% 29.89 in
(1012 mb)
NW 4.6 mph
(NW 7 kph)
- 10SM
18:35
Clear
63°F / 17°C 28°F / -2°C 27% 29.89 in
(1012 mb)
NNW 4.6 mph
(NNW 7 kph)
- 10SM
18:15
Clear
64°F / 18°C 28°F / -2°C 26% 29.86 in
(1011 mb)
NNW 6.9 mph
(NNW 11 kph)
- 10SM
17:55
Clear
64°F / 18°C 28°F / -2°C 26% 29.86 in
(1011 mb)
NW 4.6 mph
(NW 7 kph)
- 10SM
17:35
Clear
66°F / 19°C 28°F / -2°C 24% 29.86 in
(1011 mb)
NNW 8.1 mph
(NNW 13 kph)
- 10SM
17:15
Partly Cloudy
66°F / 19°C 27°F / -3°C 22% 29.86 in
(1011 mb)
NNW 9.2 mph
(NNW 15 kph)
- 10SM
16:55
Clear
66°F / 19°C 27°F / -3°C 22% 29.83 in
(1010 mb)
NW 12.7 mph
(NW 20 kph)
- 10SM
16:35
Fair
66°F / 19°C 27°F / -3°C 22% 29.83 in
(1010 mb)
NW 8.1 mph
(NW 13 kph)
- 10SM
16:15
Fair
N/A N/A N/A N/A Calm -
15:55
Fair
N/A N/A N/A N/A Calm -
15:35
Fair
N/A N/A N/A N/A Calm -
15:15
Fair
N/A N/A N/A N/A Calm -
14:55
Fair
N/A N/A N/A N/A Calm -
14:35
Fair
N/A N/A N/A N/A Calm -
14:15
Fair
N/A N/A N/A N/A Calm -
13:55
Fair
N/A N/A N/A N/A Calm -
13:35
Fair
N/A N/A N/A N/A Calm -
13:15
Fair
N/A N/A N/A N/A Calm -
12:55
Fair
N/A N/A N/A N/A Calm -
12:35
Fair
N/A N/A N/A N/A Calm -
12:15
Fair
N/A N/A N/A N/A Calm -
11:55
Fair
N/A N/A N/A N/A Calm -
11:35
Fair
N/A N/A N/A N/A Calm -
11:15
Fair
N/A N/A N/A N/A Calm -
10:55
Clear
N/A N/A N/A 29.8 in
(1009 mb)
NW 16.1 mph
(NW 26 kph)
-
10:35
Clear
63°F / 17°C 27°F / -3°C 25% 29.83 in
(1010 mb)
NW 12.7 mph
(NW 20 kph)
- 10SM
10:15
Clear
63°F / 17°C 27°F / -3°C 25% 29.83 in
(1010 mb)
NW 13.8 mph
(NW 22 kph)
- 10SM
09:55
Clear
63°F / 17°C 27°F / -3°C 25% 29.8 in
(1009 mb)
NW 13.8 mph
(NW 22 kph)
- 10SM
09:35
Clear
63°F / 17°C 27°F / -3°C 25% 29.8 in
(1009 mb)
NW 15 mph
(NW 24 kph)
- 10SM
09:15
Clear
63°F / 17°C 27°F / -3°C 25% 29.8 in
(1009 mb)
NW 16.1 mph
(NW 26 kph)
- 10SM
08:55
Clear
61°F / 16°C 28°F / -2°C 29% 29.8 in
(1009 mb)
NW 11.5 mph
(NW 19 kph)
- 10SM
08:35
Clear
61°F / 16°C 28°F / -2°C 29% 29.8 in
(1009 mb)
NW 16.1 mph
(NW 26 kph)
- 10SM
08:15
Clear
61°F / 16°C 30°F / -1°C 31% 29.77 in
(1008 mb)
NW 10.4 mph
(NW 17 kph)
- 10SM
07:55
Clear
59°F / 15°C 32°F / 0°C 36% 29.77 in
(1008 mb)
NW 9.2 mph
(NW 15 kph)
- 10SM
07:35
Clear
57°F / 14°C 34°F / 1°C 41% 29.77 in
(1008 mb)
NW 6.9 mph
(NW 11 kph)
- 10SM
07:15
Clear
57°F / 14°C 34°F / 1°C 41% 29.77 in
(1008 mb)
NNW 8.1 mph
(NNW 13 kph)
- 10SM
06:55
Clear
57°F / 14°C 36°F / 2°C 44% 29.77 in
(1008 mb)
NNW 5.8 mph
(NNW 9 kph)
- 10SM
06:35
Clear
55°F / 13°C 37°F / 3°C 51% 29.77 in
(1008 mb)
NW 6.9 mph
(NW 11 kph)
- 10SM
06:15
Clear
55°F / 13°C 37°F / 3°C 51% 29.74 in
(1007 mb)
NW 3.5 mph
(NW 6 kph)
- 10SM
05:55
Clear
54°F / 12°C 37°F / 3°C 54% 29.74 in
(1007 mb)
NW 3.5 mph
(NW 6 kph)
- 10SM
05:35
Clear
54°F / 12°C 37°F / 3°C 54% 29.74 in
(1007 mb)
NNW 4.6 mph
(NNW 7 kph)
- 10SM
05:15
Clear
55°F / 13°C 37°F / 3°C 51% 29.74 in
(1007 mb)
Calm - 10SM
04:55
Clear
55°F / 13°C 37°F / 3°C 51% 29.71 in
(1006 mb)
NNW 4.6 mph
(NNW 7 kph)
- 10SM
04:35
Clear
57°F / 14°C 37°F / 3°C 48% 29.71 in
(1006 mb)
N 4.6 mph
(N 7 kph)
- 10SM
04:15
Clear
57°F / 14°C 37°F / 3°C 48% 29.71 in
(1006 mb)
NNW 9.2 mph
(NNW 15 kph)
- 10SM
03:55
Clear
59°F / 15°C 39°F / 4°C 48% 29.71 in
(1006 mb)
NNW 9.2 mph
(NNW 15 kph)
- 10SM
03:35
Clear
59°F / 15°C 43°F / 6°C 55% 29.71 in
(1006 mb)
N 9.2 mph
(N 15 kph)
- 10SM
03:15
Clear
61°F / 16°C 45°F / 7°C 55% 29.71 in
(1006 mb)
NNW 10.4 mph
(NNW 17 kph)
- 10SM
02:55
Clear
61°F / 16°C 48°F / 9°C 63% 29.68 in
(1005 mb)
NNW 9.2 mph
(NNW 15 kph)
- 10SM
02:35
Clear
61°F / 16°C 50°F / 10°C 68% 29.68 in
(1005 mb)
NNW 5.8 mph
(NNW 9 kph)
- 10SM
02:15
Mostly Cloudy
63°F / 17°C 52°F / 11°C 68% 29.68 in
(1005 mb)
N 6.9 mph
(N 11 kph)
- 10SM
01:55
Partly Cloudy
63°F / 17°C 54°F / 12°C 73% 29.65 in
(1004 mb)
NW 3.5 mph
(NW 6 kph)
- 10SM
01:35
Partly Cloudy
61°F / 16°C 54°F / 12°C 77% 29.65 in
(1004 mb)
NNW 5.8 mph
(NNW 9 kph)
- 10SM
01:15
Mostly Cloudy
61°F / 16°C 54°F / 12°C 77% 29.65 in
(1004 mb)
N 4.6 mph
(N 7 kph)
- 10SM
00:55
Partly Cloudy
61°F / 16°C 55°F / 13°C 83% 29.65 in
(1004 mb)
NNW 3.5 mph
(NNW 6 kph)
- 10SM
00:35
Partly Cloudy
61°F / 16°C 57°F / 14°C 88% 29.65 in
(1004 mb)
Calm - 10SM
00:15
Partly Cloudy
59°F / 15°C 57°F / 14°C 94% 29.65 in
(1004 mb)
NNW 3.5 mph
(NNW 6 kph)
- 10SM
Time Weather Temperature Dewpoint Humidity Pressure Winds Precip Visibility


Weather for websites

WeatherForYou.com, LLC is not responsible for any damages or problems caused by this service. Current weather conditions are obtained from the closest station including government and personal stations which may have varying degrees of accuracy. Weather forecasts are derived from the NOAA NDFD. Like all things, this site belongs to Jesus Christ... He just trusts me to maintain it. If you have any questions or comments email webmaster@weatherforyou.com

Copyright © 2014, WeatherForYou.com LLC. All rights reserved.